Wind_Speed
6 7 8 12 15 16 16 8 5 10 14 10 6 4 5 3 9 4 3 2 3 5 5 3 3 5 5 2 3 3 5 2 2 4 3 4 5 5 5 4 6 3 5 8
6 7 7 12 15 16 8 5 6 10 14 5 6 4 6 4 8 4 5 3 1 3 5 3 6 6 4 3 3 6 5 0 3 5 6 5 4 2 4 5 3 11 8 7
7 7 7 11 14 13 7 6 3 6 8 4 10 10 9 7 3 4 3 7 6 8 6 4 7 7 4 2 3 3 2 2 3 5 9 8 8 10 10 10 8 12 12 17
8 7 7 9 12 12 8 2 2 4 7 7 10 10 10 10 6 3 7 4 4 8 4 7 5 7 6 4 3 1 3 3 4 7 11 12 14 13 14 16 16 15 18 19
8 7 7 8 9 10 3 4 4 2 3 7 10 4 9 12 5 8 8 7 8 6 8 2 7 5 3 3 4 2 1 1 4 4 6 12 17 16 16 17 13 12 14 15
8 7 7 7 7 8 3 3 8 5 4 8 8 7 9 9 10 2 2 11 8 9 9 9 9 7 5 3 2 4 1 1 2 4 9 14 6 3 7 7 7 11 11 12
9 7 7 7 7 7 5 7 6 4 4 7 7 7 9 11 6 9 10 8 8 5 10 10 7 7 5 2 2 3 3 1 2 3 5 2 7 16 14 12 9 10 12 12
9 8 7 7 7 7 5 10 4 4 2 6 6 10 14 11 12 14 12 6 7 11 3 2 2 1 3 1 2 1 4 4 2 2 4 14 12 3 6 9 15 11 5 9
11 9 7 7 7 8 8 7 6 3 13 4 10 11 15 10 7 7 5 7 7 4 3 2 2 3 2 5 6 4 3 1 4 3 4 4 6 9 4 7 11 4 12 22
12 10 9 8 8 9 9 7 7 4 6 5 8 7 9 6 9 4 7 7 4 3 2 2 2 3 2 3 2 4 3 2 6 7 6 9 9 4 3 5 3 19 20 13
14 12 10 9 9 9 9 7 7 6 4 7 5 6 7 6 10 5 10 6 2 3 2 4 4 1 4 2 4 5 7 6 4 3 3 6 2 5 5 9 17 14 13 11
15 13 11 10 10 10 8 4 6 6 5 6 10 9 11 10 6 5 14 2 6 9 3 3 2 2 0 1 3 5 4 7 4 8 5 14 14 10 6 7 6 7 7 9
16 14 12 11 10 10 10 8 9 6 5 5 5 4 9 8 10 11 6 4 6 7 2 7 3 3 5 4 5 8 6 12 5 7 7 15 20 10 6 7 5 5 4 3
17 15 13 12 10 9 9 9 10 7 5 4 4 7 8 11 10 10 8 7 10 8 5 4 3 3 10 4 7 7 10 12 10 13 19 17 6 6 11 8 6 3 3 7
16 15 13 12 10 9 9 9 10 10 2 3 2 5 9 11 13 9 6 7 6 4 4 3 3 4 1 3 3 8 13 13 9 7 1 2 2 4 2 1 2 4 7 12
16 15 14 13 11 10 5 3 8 9 7 3 2 2 3 8 7 6 7 8 8 5 5 4 5 5 5 4 4 7 9 9 5 5 3 5 1 1 2 0 4 7 12 15
17 15 12 12 12 12 7 3 4 12 9 3 2 2 1 7 6 5 6 10 5 5 4 5 6 8 6 2 6 12 6 4 2 5 4 3 3 3 3 4 8 12 15 17
17 15 15 14 13 12 8 5 4 12 6 4 3 2 2 6 4 4 5 4 6 5 4 3 4 4 4 4 8 7 6 5 5 4 2 2 4 3 3 7 11 15 18 20
21 19 16 15 16 13 16 12 7 10 4 3 4 5 4 7 4 4 4 4 2 3 3 4 5 3 5 6 8 10 11 7 6 6 6 4 1 3 7 11 14 16 18 20
27 23 14 10 11 14 14 11 6 6 7 8 7 6 4 7 6 4 5 3 1 2 2 3 2 3 6 6 6 8 11 9 11 8 3 1 5 8 11 13 15 17 18 19
35 18 10 11 24 18 9 6 6 6 2 6 7 12 5 7 4 3 5 3 3 3 3 3 2 3 8 12 12 12 13 11 6 3 1 5 8 11 14 15 15 16 18 20
15 14 17 19 8 4 3 3 4 4 4 6 6 4 5 7 5 4 4 3 2 3 5 2 3 2 11 14 14 12 10 8 4 2 5 9 12 13 14 15 17 17 22 25
18 4 7 4 1 3 6 8 3 4 8 9 7 4 5 5 4 4 3 4 3 2 2 3 0 8 12 13 12 10 8 7 5 6 10 13 14 15 17 19 21 22 24 25
3 3 3 1 3 0 1 3 4 4 9 14 15 6 3 3 2 2 3 2 2 3 3 4 2 9 12 11 9 8 7 9 11 17 17 17 19 18 18 20 20 22 25 28
3 3 2 2 2 5 5 8 7 10 15 12 9 6 3 2 2 0 3 4 3 4 2 2 5 10 11 9 6 5 8 12 17 15 17 20 19 20 22 20 20 23 27 28
3 3 3 4 5 4 6 8 10 10 9 9 6 3 1 2 1 2 3 1 3 2 2 4 9 10 8 6 6 8 12 17 18 17 17 17 20 21 22 22 23 25 27 30
2 2 4 6 6 4 3 5 4 9 5 2 3 1 3 2 1 2 2 2 2 2 5 6 7 8 6 6 10 15 17 18 16 15 16 18 21 22 22 24 21 21 23 28
Wind_Direction
136 122 153 165 156 151 144 177 191 173 162 190 198 195 155 135 151 164 126 88 111 157 147 138 114 136 63 90 359 29 35 343 275 4 76 353 322 329 302 288 296 234 291 282
149 128 135 168 166 161 164 191 110 162 172 171 196 145 136 157 174 155 167 141 165 177 147 125 122 118 98 77 19 20 15 144 295 184 162 170 275 284 297 283 327 265 259 271
158 141 128 158 173 174 161 175 119 153 205 294 189 183 172 144 89 118 111 117 138 138 143 116 151 130 138 108 60 45 310 317 301 312 326 322 295 283 272 265 256 267 278 287
169 155 141 143 168 179 169 206 139 154 180 211 200 187 179 163 152 151 174 156 195 156 141 143 146 133 142 170 145 154 309 264 302 294 303 305 301 295 283 272 261 259 280 285
180 165 157 152 157 166 176 185 159 136 132 164 176 150 199 183 138 164 167 185 155 162 156 204 171 161 196 185 164 199 132 286 337 272 298 313 309 300 284 267 270 287 298 292
186 177 168 165 165 166 165 169 152 174 172 180 176 189 175 172 144 48 203 147 142 99 80 76 65 59 59 71 183 200 281 289 332 275 343 319 287 242 338 308 251 310 283 296
189 186 175 172 172 178 173 175 146 127 154 194 188 179 175 159 170 138 122 138 121 110 117 97 82 76 57 235 102 290 140 159 68 286 305 275 15 315 291 286 293 301 303 319
190 190 178 170 172 171 170 167 132 136 122 163 161 161 142 126 124 135 117 76 109 139 143 87 28 117 58 121 44 139 244 156 148 263 266 294 293 71 358 332 303 307 336 350
196 188 183 169 162 165 159 164 157 123 123 206 158 153 166 152 135 139 104 104 130 132 97 105 169 212 267 152 143 57 76 139 230 185 259 274 332 0 12 308 274 59 341 330
197 191 185 177 164 162 160 159 154 112 103 149 165 159 178 174 181 118 143 152 144 164 107 115 166 224 334 215 189 191 117 198 220 230 253 271 300 16 318 281 350 327 329 9
197 197 190 186 180 173 170 166 165 136 108 143 148 137 151 167 183 157 138 142 151 126 129 168 204 208 202 223 261 175 187 179 207 217 248 273 120 254 312 300 315 352 0 353
196 198 196 192 188 183 180 171 177 163 146 154 173 176 172 162 168 184 172 198 156 179 129 186 169 186 16 224 243 177 251 209 248 196 236 301 308 334 326 320 345 348 341 327
194 196 197 197 195 189 188 184 176 161 125 121 154 175 192 190 190 170 183 203 179 182 145 149 172 193 173 174 227 267 277 275 234 273 267 296 307 336 57 27 41 354 344 323
192 194 193 195 195 191 185 179 182 167 145 136 184 201 193 202 195 189 182 182 189 154 156 116 143 184 205 213 257 274 270 283 269 263 280 309 32 41 338 328 347 15 346 315
192 193 194 192 190 187 188 188 192 193 149 152 133 178 219 213 212 209 208 185 181 171 132 120 196 229 221 225 288 259 254 270 265 264 319 279 169 299 288 39 17 333 323 319
194 193 192 192 189 184 155 187 219 209 180 156 132 206 205 213 200 187 195 205 209 202 171 194 238 211 217 193 225 257 271 281 327 285 255 316 217 268 226 83 315 313 316 319
196 197 192 190 186 179 184 186 216 199 183 163 107 218 229 192 164 179 189 198 214 209 222 210 218 213 217 210 245 261 267 225 151 146 101 100 258 231 206 282 307 313 313 315
195 194 202 203 201 189 198 188 167 178 171 181 138 182 203 174 177 182 182 189 192 213 233 193 218 207 200 247 248 234 187 157 148 161 222 196 156 180 276 304 312 313 313 314
196 197 199 202 208 203 213 207 197 175 191 206 163 169 194 167 143 153 154 173 180 216 231 209 188 177 217 236 198 178 172 161 157 157 163 136 169 308 311 313 313 310 311 314
196 194 197 204 202 202 213 211 208 214 210 217 191 175 163 177 166 165 137 178 244 225 210 171 215 248 222 207 183 173 174 169 161 187 190 299 312 311 308 306 307 309 310 316
195 189 181 167 153 156 180 176 168 190 247 209 188 189 144 173 158 159 201 163 157 236 161 239 225 244 200 175 154 147 150 159 164 156 277 301 302 301 302 301 308 313 311 314
184 177 142 148 176 148 147 176 165 203 210 174 157 144 130 139 146 120 166 159 161 232 149 226 246 147 151 162 163 162 161 161 172 256 297 300 300 302 303 303 308 306 306 314
140 116 135 155 180 174 197 186 187 187 158 160 157 122 124 122 140 130 167 185 194 176 182 230 330 130 164 168 170 175 180 188 228 301 305 303 300 301 302 303 308 309 310 314
90 100 112 302 173 352 352 352 73 94 147 141 130 97 105 124 113 142 178 86 198 210 230 222 144 171 168 168 174 187 209 242 276 300 304 299 307 304 303 304 308 309 313 314
82 58 72 69 70 57 89 97 96 114 133 122 106 85 102 83 120 61 122 170 224 223 240 78 141 163 167 168 186 231 261 273 288 295 295 298 303 302 305 308 310 315 314 313
52 70 114 100 92 72 60 88 103 128 125 93 65 82 138 91 66 185 205 224 231 103 91 150 150 157 171 191 221 263 279 289 292 293 293 294 299 304 305 306 307 310 313 316
80 86 107 97 78 97 120 117 131 153 129 64 73 108 54 104 203 240 223 253 31 125 148 151 161 175 197 242 277 289 298 296 291 288 288 291 299 303 302 306 314 308 303 306
Height
1496 1496 1497 1499 1501 1504 1508 1509 1505 1510 1513 1515 1511 1511 1513 1518 1519 1521 1520 1518 1517 1519 1522 1525 1528 1531 1534 1542 1540 1537 1542 1538 1541 1534 1537 1539 1537 1535 1535 1545 1544 1539 1547 1538
1497 1497 1498 1499 1501 1504 1507 1505 1507 1511 1512 1512 1513 1516 1518 1517 1519 1519 1520 1522 1522 1524 1524 1532 1530 1535 1544 1543 1542 1542 1543 1541 1542 1533 1539 1539 1538 1535 1539 1543 1551 1552 1552 1539
1496 1497 1498 1499 1501 1503 1505 1505 1508 1513 1514 1510 1508 1512 1514 1519 1522 1523 1522 1523 1524 1525 1528 1527 1533 1537 1543 1545 1545 1548 1548 1541 1542 1547 1539 1536 1540 1537 1535 1538 1548 1544 1536 1526
1496 1497 1498 1499 1501 1503 1505 1504 1505 1507 1509 1510 1508 1510 1511 1514 1519 1522 1522 1523 1522 1525 1532 1530 1534 1536 1543 1546 1548 1548 1547 1548 1542 1541 1538 1536 1535 1535 1533 1534 1531 1538 1531 1526
1496 1497 1498 1499 1501 1502 1505 1504 1507 1509 1509 1509 1509 1514 1511 1512 1518 1519 1521 1520 1523 1524 1531 1530 1533 1534 1537 1539 1547 1546 1548 1550 1553 1551 1541 1537 1535 1532 1529 1525 1528 1527 1527 1526
1496 1497 1498 1500 1501 1503 1505 1504 1505 1507 1513 1510 1510 1511 1512 1513 1519 1524 1520 1522 1525 1530 1533 1535 1537 1540 1541 1542 1544 1547 1550 1552 1555 1557 1551 1549 1544 1533 1527 1526 1526 1528 1532 1526
1495 1497 1498 1499 1501 1502 1503 1504 1507 1509 1512 1511 1508 1512 1514 1516 1518 1522 1524 1527 1530 1539 1539 1541 1542 1544 1546 1546 1548 1549 1556 1556 1565 1565 1563 1555 1526 1526 1525 1525 1525 1525 1524 1524
1495 1497 1499 1500 1501 1502 1503 1504 1507 1507 1514 1510 1513 1513 1514 1522 1522 1525 1529 1534 1536 1539 1540 1542 1550 1549 1556 1552 1550 1551 1551 1558 1567 1567 1553 1540 1530 1526 1530 1532 1531 1525 1526 1528
1495 1497 1499 1500 1501 1502 1503 1505 1506 1507 1509 1515 1513 1516 1518 1521 1524 1530 1535 1537 1538 1540 1543 1548 1557 1546 1539 1540 1549 1556 1556 1557 1559 1567 1565 1552 1527 1528 1534 1533 1531 1529 1532 1531
1494 1497 1499 1500 1501 1502 1504 1505 1506 1508 1510 1514 1516 1517 1518 1520 1523 1527 1533 1537 1539 1541 1547 1552 1555 1546 1538 1539 1554 1562 1564 1564 1562 1559 1559 1543 1531 1534 1534 1539 1538 1535 1535 1536
1492 1495 1498 1500 1501 1503 1504 1505 1506 1508 1510 1514 1516 1517 1520 1521 1523 1528 1532 1536 1539 1543 1549 1552 1549 1551 1540 1541 1535 1546 1552 1559 1562 1558 1558 1551 1533 1535 1539 1537 1534 1536 1535 1536
1492 1495 1497 1499 1501 1503 1504 1507 1507 1508 1511 1514 1514 1516 1517 1519 1521 1524 1528 1529 1531 1533 1538 1547 1547 1546 1549 1547 1543 1533 1540 1538 1541 1543 1534 1527 1531 1533 1535 1535 1534 1535 1535 1534
1490 1493 1497 1499 1501 1502 1504 1506 1508 1510 1512 1516 1517 1518 1518 1519 1520 1522 1527 1529 1530 1532 1533 1539 1543 1547 1543 1550 1542 1534 1531 1531 1533 1537 1530 1529 1530 1532 1533 1534 1533 1534 1534 1534
1489 1493 1496 1499 1501 1502 1504 1506 1508 1510 1512 1513 1516 1515 1517 1518 1520 1522 1524 1525 1527 1530 1533 1535 1539 1542 1535 1535 1532 1530 1531 1528 1527 1527 1526 1528 1530 1530 1532 1533 1533 1532 1533 1534
1488 1492 1495 1498 1500 1502 1504 1506 1507 1509 1514 1513 1515 1515 1516 1517 1519 1521 1523 1525 1527 1529 1532 1534 1536 1534 1535 1536 1536 1529 1527 1524 1525 1526 1528 1529 1531 1530 1532 1532 1533 1533 1532 1531
1488 1492 1495 1498 1500 1502 1505 1508 1509 1509 1510 1513 1515 1516 1515 1516 1518 1521 1522 1525 1526 1528 1529 1531 1530 1529 1533 1536 1530 1521 1522 1522 1523 1523 1525 1525 1527 1530 1530 1531 1531 1531 1530 1529
1487 1491 1495 1497 1500 1502 1505 1507 1506 1506 1510 1511 1514 1514 1514 1515 1518 1520 1522 1522 1524 1527 1527 1527 1528 1528 1530 1528 1522 1518 1520 1522 1523 1523 1523 1527 1527 1527 1529 1530 1530 1529 1528 1525
1487 1491 1494 1497 1499 1501 1504 1505 1505 1506 1509 1510 1513 1513 1515 1514 1516 1519 1519 1521 1523 1524 1523 1524 1524 1524 1524 1520 1513 1515 1518 1521 1521 1522 1523 1525 1526 1528 1528 1528 1527 1526 1524 1522
1485 1490 1493 1495 1497 1499 1501 1504 1506 1507 1510 1508 1509 1510 1513 1513 1515 1516 1518 1520 1522 1523 1521 1521 1521 1518 1514 1509 1510 1513 1516 1519 1521 1524 1525 1524 1525 1526 1526 1525 1524 1522 1519 1518
1482 1488 1490 1490 1491 1496 1501 1503 1505 1505 1503 1503 1503 1505 1508 1511 1514 1515 1519 1519 1519 1518 1518 1518 1517 1510 1508 1508 1509 1511 1513 1517 1520 1523 1523 1523 1524 1524 1524 1524 1522 1520 1516 1511
1473 1477 1481 1484 1487 1493 1495 1495 1498 1499 1498 1495 1496 1499 1502 1507 1510 1512 1515 1515 1517 1514 1513 1514 1507 1500 1502 1506 1508 1511 1513 1517 1520 1521 1522 1522 1522 1522 1520 1517 1514 1513 1512 1507
1468 1471 1477 1483 1484 1485 1489 1490 1494 1492 1489 1491 1493 1495 1498 1503 1506 1509 1512 1512 1515 1508 1512 1514 1504 1496 1502 1506 1509 1512 1514 1516 1518 1519 1520 1519 1519 1518 1515 1514 1510 1506 1504 1501
1469 1472 1476 1479 1481 1481 1480 1478 1480 1482 1483 1486 1491 1495 1496 1500 1504 1506 1507 1507 1507 1511 1512 1502 1492 1499 1503 1506 1509 1512 1514 1516 1516 1516 1517 1515 1513 1511 1510 1508 1505 1501 1498 1496
1471 1473 1476 1477 1477 1477 1477 1475 1476 1482 1483 1485 1489 1494 1496 1499 1503 1504 1501 1508 1508 1506 1504 1497 1497 1501 1503 1506 1508 1512 1513 1514 1514 1513 1512 1509 1508 1505 1503 1503 1500 1496 1492 1489
1475 1476 1476 1479 1481 1482 1483 1481 1482 1484 1485 1487 1491 1495 1497 1500 1502 1502 1505 1506 1501 1496 1491 1496 1499 1502 1505 1507 1510 1512 1512 1512 1510 1509 1507 1505 1503 1501 1497 1496 1493 1491 1487 1482
1478 1480 1481 1483 1483 1484 1484 1485 1485 1487 1488 1490 1492 1496 1498 1499 1499 1501 1498 1497 1492 1491 1497 1499 1501 1504 1506 1508 1509 1510 1510 1508 1506 1504 1502 1500 1498 1495 1492 1490 1488 1484 1480 1475
1481 1483 1482 1483 1484 1485 1487 1488 1489 1490 1492 1495 1497 1498 1500 1505 1501 1501 1498 1497 1498 1498 1500 1501 1503 1505 1507 1508 1507 1506 1504 1502 1501 1500 1498 1496 1493 1490 1487 1484 1481 1479 1475 1470